K5VP Weather Reports


time (UTC)temp
C
wind
direction
speed
KPH
gust
KPH
rain 1hr
cm
rain 24hr
cm
rain mn
cm
humidity
%
barometer
mb
20260906022629 27 317 0.0 0.0 0.00 0.00 0.00 85 1011.7
20260906022124 27 317 0.0 0.0 0.00 0.00 0.00 85 1011.7
20260906021623 27 317 0.0 0.0 0.00 0.00 0.00 84 1011.7
20260906021105 27 317 0.0 0.0 0.00 0.00 0.00 83 1011.8
20260906020557 27 317 0.0 0.0 0.00 0.00 0.00 82 1011.7
20260906020036 27 317 0.0 0.0 0.00 0.00 0.00 82 1011.8
20260906015522 27 317 0.0 0.0 0.00 0.00 0.00 82 1011.7
20260906015025 27 317 0.0 0.0 0.00 0.00 0.00 81 1011.7
20260906014510 27 317 0.0 0.0 0.00 0.00 0.00 81 1011.7
20260906014006 27 317 0.0 0.0 0.00 0.00 0.00 80 1011.6
20260906013514 27 317 0.0 0.0 0.00 0.00 0.00 81 1011.5
20260906013018 27 317 0.0 0.0 0.00 0.00 0.00 81 1011.6
20260906012518 28 317 0.0 0.0 0.00 0.00 0.00 80 1011.6
20260906012019 28 317 0.0 0.0 0.00 0.00 0.00 79 1011.5
20260906011507 28 317 0.0 0.0 0.00 0.00 0.00 77 1011.5
20260906010951 28 317 0.0 0.0 0.00 0.00 0.00 77 1011.5
20260906010451 28 317 0.0 0.0 0.00 0.00 0.00 78 1011.4
20260906005953 28 317 0.0 0.0 0.00 0.00 0.00 80 1011.4
20260906005455 28 317 0.0 0.0 0.00 0.00 0.00 79 1011.3
20260906004944 28 317 0.0 0.0 0.00 0.00 0.00 78 1011.3
20260906004440 28 317 0.0 0.0 0.00 0.00 0.00 78 1011.2
20260906003927 28 317 0.0 0.0 0.00 0.00 0.00 76 1011.2
20260906003410 29 317 0.0 0.0 0.00 0.00 0.00 74 1011.2
20260906002917 29 317 0.0 0.0 0.00 0.00 0.00 73 1011.2
20260906002416 29 317 0.0 0.0 0.00 0.00 0.00 72 1011.3
20260906001856 29 317 0.0 0.0 0.00 0.00 0.00 71 1011.4
20260906001354 30 317 0.0 0.0 0.00 0.00 0.00 70 1011.4
20260906000853 30 317 0.0 0.0 0.00 0.00 0.00 71 1011.4
20260906000351 30 317 0.0 0.0 0.00 0.00 0.00 72 1011.4
20260905235833 30 317 0.0 0.0 0.00 0.00 0.00 71 1011.4
20260905235340 30 317 0.0 0.0 0.00 0.00 0.00 72 1011.3
20260905234836 31 319 0.0 0.0 0.00 0.00 0.00 71 1011.3
20260905234334 31 319 0.0 0.0 0.00 0.00 0.00 69 1011.3
20260905233829 31 319 0.0 0.0 0.00 0.00 0.00 69 1011.4
20260905233331 31 319 0.0 0.0 0.00 0.00 0.00 69 1011.4
20260905232835 32 319 0.0 0.0 0.00 0.00 0.00 68 1011.5
20260905232339 32 319 0.0 0.0 0.00 0.00 0.00 67 1011.5
20260905231825 32 319 0.0 0.0 0.00 0.00 0.00 67 1011.3
20260905231310 32 319 0.0 0.0 0.00 0.00 0.00 66 1011.4
20260905230804 32 319 0.0 0.0 0.00 0.00 0.00 65 1011.4
20260905230253 32 319 0.0 0.0 0.00 0.00 0.00 63 1011.4
20260905225742 33 319 0.0 0.0 0.00 0.00 0.00 63 1011.5
20260905225223 33 319 0.0 0.0 0.00 0.00 0.00 62 1011.4
20260905224707 33 319 0.0 0.0 0.00 0.00 0.00 61 1011.5
20260905224211 33 319 0.0 0.0 0.00 0.00 0.00 59 1011.5
20260905223649 34 319 0.0 0.0 0.00 0.00 0.00 55 1011.5
20260905223138 35 319 0.0 0.0 0.00 0.00 0.00 54 1011.4
20260905222632 35 319 0.0 0.0 0.00 0.00 0.00 51 1011.4
20260905222113 35 319 0.0 0.0 0.00 0.00 0.00 53 1011.5
20260905221605 35 319 0.0 0.0 0.00 0.00 0.00 53 1011.5
20260905221058 36 319 0.0 0.0 0.00 0.00 0.00 50 1011.4
20260905220545 37 319 0.0 0.0 0.00 0.00 0.00 47 1011.5
20260905220024 38 319 0.0 0.0 0.00 0.00 0.00 45 1011.6
20260905215509 38 319 0.0 0.0 0.00 0.00 0.00 45 1011.7
20260905214958 37 319 0.0 0.0 0.00 0.00 0.00 48 1011.7
20260905214442 37 319 0.0 0.0 0.00 0.00 0.00 45 1011.7
20260905213924 37 319 0.0 0.0 0.00 0.00 0.00 48 1011.8
20260905213410 37 329 0.0 0.0 0.00 0.00 0.00 45 1011.8
20260905212851 37 330 0.0 0.0 0.00 0.00 0.00 47 1011.8
20260905212356 37 260 0.0 0.0 0.00 0.00 0.00 46 1011.8
20260905211848 37 238 0.0 0.0 0.00 0.00 0.00 48 1011.8
20260905211349 36 235 0.0 0.0 0.00 0.00 0.00 46 1011.8
20260905210854 36 235 0.0 0.0 0.00 0.00 0.00 47 1011.9
20260905210359 36 41 0.0 0.0 0.00 0.00 0.00 47 1011.9
20260905205902 36 329 0.0 0.0 0.00 0.00 0.00 47 1011.9
20260905205357 36 271 0.0 0.0 0.00 0.00 0.00 48 1012.0
20260905204900 36 276 0.0 0.0 0.00 0.00 0.00 47 1012.1
20260905204350 36 261 0.0 0.0 0.00 0.00 0.00 48 1012.1
20260905203848 36 238 0.0 0.0 0.00 0.00 0.00 45 1012.1
20260905203339 36 238 0.0 1.6 0.00 0.00 0.00 46 1012.2
20260905202837 36 250 0.0 0.0 0.00 0.00 0.00 47 1012.2
20260905202317 36 249 0.0 0.0 0.00 0.00 0.00 48 1012.3
20260905201812 36 42 0.0 0.0 0.00 0.00 0.00 47 1012.4
20260905201251 36 44 0.0 1.6 0.00 0.00 0.00 48 1012.5
20260905200729 36 111 0.0 1.6 0.00 0.00 0.00 49 1012.6
20260905200212 35 266 0.0 0.0 0.00 0.00 0.00 49 1012.7
20260905195655 35 277 0.0 0.0 0.00 0.00 0.00 50 1012.8
20260905195144 35 91 0.0 1.6 0.00 0.00 0.00 52 1012.8
20260905194634 35 260 0.0 0.0 0.00 0.00 0.00 52 1012.9
20260905194137 34 266 0.0 0.0 0.00 0.00 0.00 53 1012.9
20260905193637 33 266 0.0 0.0 0.00 0.00 0.00 54 1013.1
20260905193122 33 322 0.0 0.0 0.00 0.00 0.00 60 1013.1
20260905192625 32 50 0.0 0.0 0.00 0.00 0.00 66 1013.2
20260905192111 32 50 0.0 0.0 0.00 0.00 0.00 70 1013.4
20260905191618 32 50 0.0 0.0 0.00 0.00 0.00 70 1013.5
20260905191104 32 50 0.0 0.0 0.00 0.00 0.00 65 1013.6
20260905190558 33 62 0.0 1.6 0.00 0.00 0.00 63 1013.7
20260905190046 34 238 0.0 0.0 0.00 0.00 0.00 60 1013.6
20260905185538 35 245 0.0 0.0 0.00 0.00 0.00 55 1013.7
20260905185044 35 328 0.0 0.0 0.00 0.00 0.00 51 1013.7
20260905184541 36 78 0.0 0.0 0.00 0.00 0.00 52 1013.8
20260905184038 36 78 0.0 0.0 0.00 0.00 0.00 50 1013.8
20260905183528 35 226 0.0 0.0 0.00 0.00 0.00 50 1013.7
20260905183035 35 165 0.0 3.2 0.00 0.00 0.00 53 1013.8
20260905182531 35 62 0.0 0.0 0.00 0.00 0.00 54 1014.0
20260905182035 35 62 0.0 0.0 0.00 0.00 0.00 51 1014.0
20260905181523 35 115 0.0 0.0 0.00 0.00 0.00 51 1014.0
20260905181029 35 107 0.0 0.0 0.00 0.00 0.00 53 1013.9
20260905180518 35 51 0.0 0.0 0.00 0.00 0.00 54 1014.0
20260905180017 35 56 0.0 4.8 0.00 0.00 0.00 54 1014.1
20260905175508 35 51 0.0 0.0 0.00 0.00 0.00 51 1014.1
20260905175012 35 66 0.0 4.8 0.00 0.00 0.00 51 1014.1
20260905174455 35 98 0.0 0.0 0.00 0.00 0.00 54 1014.1
20260905173935 35 99 0.0 0.0 0.00 0.00 0.00 57 1014.1
20260905173427 35 99 0.0 0.0 0.00 0.00 0.00 54 1014.2
20260905172929 35 93 0.0 0.0 0.00 0.00 0.00 54 1014.2
20260905172416 35 301 0.0 0.0 0.00 0.00 0.00 55 1014.3
20260905171909 35 252 0.0 0.0 0.00 0.00 0.00 55 1014.3
20260905171409 35 217 0.0 0.0 0.00 0.00 0.00 56 1014.4
20260905170851 35 229 0.0 0.0 0.00 0.00 0.00 56 1014.5
20260905170358 35 109 0.0 3.2 0.00 0.00 0.00 56 1014.5
20260905165836 35 58 0.0 0.0 0.00 0.00 0.00 57 1014.6
20260905165325 35 104 0.0 0.0 0.00 0.00 0.00 57 1014.7
20260905164811 35 227 0.0 0.0 0.00 0.00 0.00 57 1014.7
20260905164318 35 231 0.0 0.0 0.00 0.00 0.00 59 1014.7
20260905163811 35 122 0.0 0.0 0.00 0.00 0.00 55 1014.8
20260905163257 34 306 0.0 0.0 0.00 0.00 0.00 57 1014.8
20260905162800 34 300 0.0 0.0 0.00 0.00 0.00 57 1014.8
20260905162253 34 250 0.0 1.6 0.00 0.00 0.00 58 1014.8
20260905161751 34 42 0.0 0.0 0.00 0.00 0.00 59 1014.9
20260905161255 33 41 0.0 0.0 0.00 0.00 0.00 60 1015.0
20260905160743 33 245 0.0 0.0 0.00 0.00 0.00 62 1015.0
20260905160227 33 248 0.0 0.0 0.00 0.00 0.00 63 1015.0
20260905155719 33 257 0.0 0.0 0.00 0.00 0.00 62 1015.0
20260905155203 33 251 0.0 0.0 0.00 0.00 0.00 64 1015.1
20260905154659 33 214 0.0 0.0 0.00 0.00 0.00 63 1015.1
20260905154200 32 282 0.0 0.0 0.00 0.00 0.00 63 1015.0
20260905153646 32 282 0.0 0.0 0.00 0.00 0.00 64 1015.2
20260905153128 32 289 0.0 0.0 0.00 0.00 0.00 67 1015.3
20260905152614 32 289 0.0 0.0 0.00 0.00 0.00 71 1015.3
20260905152103 31 129 0.0 0.0 0.00 0.00 0.00 70 1015.3
20260905151555 31 129 0.0 0.0 0.00 0.00 0.00 72 1015.3
20260905151059 31 129 0.0 0.0 0.00 0.00 0.00 72 1015.4
20260905150554 31 129 0.0 0.0 0.00 0.00 0.00 73 1015.4
20260905150043 31 129 0.0 0.0 0.00 0.00 0.00 74 1015.4
20260905145540 31 129 0.0 0.0 0.00 0.00 0.00 74 1015.5
20260905145043 30 129 0.0 0.0 0.00 0.00 0.00 76 1015.5
20260905144521 30 129 0.0 0.0 0.00 0.00 0.00 77 1015.4
20260905144028 30 129 0.0 0.0 0.00 0.00 0.00 79 1015.4
20260905143528 29 129 0.0 0.0 0.00 0.00 0.00 80 1015.3
20260905143028 28 129 0.0 0.0 0.00 0.00 0.00 82 1015.3
20260905142528 28 129 0.0 0.0 0.00 0.00 0.00 84 1015.3
20260905142012 28 129 0.0 0.0 0.00 0.00 0.00 84 1015.3
20260905141458 27 129 0.0 0.0 0.00 0.00 0.00 86 1015.3
20260905140942 27 129 0.0 0.0 0.00 0.00 0.00 88 1015.3
20260905140431 27 129 0.0 0.0 0.00 0.00 0.00 91 1015.3
20260905135912 26 129 0.0 0.0 0.00 0.00 0.00 93 1015.3
20260905135410 26 129 0.0 0.0 0.00 0.00 0.00 94 1015.3
20260905134913 26 129 0.0 0.0 0.00 0.00 0.00 95 1015.3
20260905134406 26 128 0.0 0.0 0.00 0.00 0.00 95 1015.3
20260905133848 26 127 0.0 0.0 0.00 0.00 0.00 95 1015.4
20260905133334 26 127 0.0 0.0 0.00 0.00 0.00 95 1015.4
20260905132819 26 127 0.0 0.0 0.00 0.00 0.00 95 1015.4
20260905132318 25 127 0.0 0.0 0.00 0.00 0.00 95 1015.3
20260905131821 25 127 0.0 0.0 0.00 0.00 0.00 95 1015.3
20260905131301 25 127 0.0 0.0 0.00 0.00 0.00 95 1015.3
20260905130740 25 127 0.0 0.0 0.00 0.00 0.00 95 1015.2
20260905130235 25 127 0.0 0.0 0.00 0.00 0.00 95 1015.2
20260905125734 25 127 0.0 0.0 0.00 0.00 0.00 95 1015.3
20260905125220 25 127 0.0 0.0 0.00 0.00 0.00 95 1015.2
20260905124716 25 127 0.0 0.0 0.00 0.00 0.00 95 1015.1
20260905124213 24 127 0.0 0.0 0.00 0.00 0.00 95 1015.1
20260905123712 24 127 0.0 0.0 0.00 0.00 0.00 95 1015.1
20260905123201 23 127 0.0 0.0 0.00 0.00 0.00 95 1015.0
20260905122647 23 127 0.0 0.0 0.00 0.00 0.00 95 1014.9
20260905122136 23 127 0.0 0.0 0.00 0.00 0.00 95 1014.8
20260905121642 23 127 0.0 0.0 0.00 0.00 0.00 95 1014.8
20260905121137 23 127 0.0 0.0 0.00 0.00 0.00 95 1014.7
20260905120630 23 127 0.0 0.0 0.00 0.00 0.00 95 1014.8
20260905120137 23 127 0.0 0.0 0.00 0.00 0.00 95 1014.8
20260905115627 23 127 0.0 0.0 0.00 0.00 0.00 95 1014.7
20260905115112 23 127 0.0 0.0 0.00 0.00 0.00 95 1014.7
20260905114603 23 127 0.0 0.0 0.00 0.00 0.00 95 1014.8
20260905114045 23 127 0.0 0.0 0.00 0.00 0.00 95 1014.7
20260905113550 23 127 0.0 0.0 0.00 0.00 0.00 95 1014.7
20260905113056 23 127 0.0 0.0 0.00 0.00 0.00 95 1014.7
20260905112544 23 127 0.0 0.0 0.00 0.00 0.00 95 1014.6
20260905112029 23 127 0.0 0.0 0.00 0.00 0.00 95 1014.5
20260905111524 23 127 0.0 0.0 0.00 0.00 0.00 95 1014.5
20260905111026 23 127 0.0 0.0 0.00 0.00 0.00 95 1014.3
20260905110508 23 127 0.0 0.0 0.00 0.00 0.00 95 1014.3
20260905105953 23 127 0.0 0.0 0.00 0.00 0.00 95 1014.3
20260905105446 23 127 0.0 0.0 0.00 0.00 0.00 95 1014.3
20260905104949 23 127 0.0 0.0 0.00 0.00 0.00 95 1014.2
20260905104442 23 127 0.0 0.0 0.00 0.00 0.00 95 1014.2
20260905103938 23 127 0.0 0.0 0.00 0.00 0.00 95 1014.2
20260905103440 23 127 0.0 0.0 0.00 0.00 0.00 95 1014.2
20260905102932 23 127 0.0 0.0 0.00 0.00 0.00 95 1014.3
20260905102430 23 127 0.0 0.0 0.00 0.00 0.00 95 1014.3
20260905101916 23 127 0.0 0.0 0.00 0.00 0.00 95 1014.3
20260905101354 24 127 0.0 0.0 0.00 0.00 0.00 95 1014.2
20260905100851 24 127 0.0 0.0 0.00 0.00 0.00 95 1014.1
20260905100337 24 127 0.0 0.0 0.00 0.00 0.00 95 1014.1
20260905095841 24 127 0.0 0.0 0.00 0.00 0.00 95 1014.1
20260905095325 24 127 0.0 0.0 0.00 0.00 0.00 95 1014.0
20260905094809 24 127 0.0 0.0 0.00 0.00 0.00 95 1014.1
20260905094309 24 127 0.0 0.0 0.00 0.00 0.00 95 1014.1
20260905093758 24 127 0.0 0.0 0.00 0.00 0.00 95 1014.2
20260905093248 24 127 0.0 0.0 0.00 0.00 0.00 95 1014.1
20260905092740 24 127 0.0 0.0 0.00 0.00 0.00 95 1014.1
20260905092235 24 127 0.0 0.0 0.00 0.00 0.00 95 1014.1
20260905091723 24 127 0.0 0.0 0.00 0.00 0.00 95 1014.1
20260905091221 24 127 0.0 0.0 0.00 0.00 0.00 95 1014.1
20260905090723 24 127 0.0 0.0 0.00 0.00 0.00 95 1014.2
20260905090226 24 127 0.0 0.0 0.00 0.00 0.00 95 1014.2
20260905085708 24 127 0.0 0.0 0.00 0.00 0.00 95 1014.2
20260905085151 24 127 0.0 0.0 0.00 0.00 0.00 95 1014.2
20260905084648 24 127 0.0 0.0 0.00 0.00 0.00 95 1014.1
20260905084129 24 127 0.0 0.0 0.00 0.00 0.00 94 1014.1
20260905083616 24 127 0.0 0.0 0.00 0.00 0.00 95 1014.1
20260905083120 24 127 0.0 0.0 0.00 0.00 0.00 94 1014.1
20260905082608 24 127 0.0 0.0 0.00 0.00 0.00 94 1014.0
20260905082100 24 127 0.0 0.0 0.00 0.00 0.00 94 1014.1
20260905081546 24 127 0.0 0.0 0.00 0.00 0.00 94 1014.1
20260905081031 25 127 0.0 0.0 0.00 0.00 0.00 94 1014.1
20260905080349 25 127 0.0 0.0 0.00 0.00 0.00 94 1014.1
20260905075847 25 127 0.0 0.0 0.00 0.00 0.00 94 1014.2
20260905075343 25 127 0.0 0.0 0.00 0.00 0.00 94 1014.1
20260905074842 25 127 0.0 0.0 0.00 0.00 0.00 94 1014.0
20260905074325 25 127 0.0 0.0 0.00 0.00 0.00 94 1014.0
20260905073826 25 127 0.0 0.0 0.00 0.00 0.00 94 1014.0
20260905073315 25 127 0.0 0.0 0.00 0.00 0.00 94 1014.0
20260905072821 25 127 0.0 0.0 0.00 0.00 0.00 94 1014.1
20260905072326 25 127 0.0 0.0 0.00 0.00 0.00 94 1014.1
20260905071807 25 127 0.0 0.0 0.00 0.00 0.00 94 1014.0
20260905071252 25 127 0.0 0.0 0.00 0.00 0.00 94 1014.1
20260905070758 25 127 0.0 0.0 0.00 0.00 0.00 94 1014.0
20260905070249 25 127 0.0 0.0 0.00 0.00 0.00 94 1014.0
20260905065734 25 127 0.0 0.0 0.00 0.00 0.00 94 1014.0
20260905065224 25 127 0.0 0.0 0.00 0.00 0.00 94 1014.1
20260905064721 25 127 0.0 0.0 0.00 0.00 0.00 94 1014.2
20260905064159 25 127 0.0 0.0 0.00 0.00 0.00 94 1014.2
20260905063647 25 127 0.0 0.0 0.00 0.00 0.00 94 1014.2
20260905063133 25 127 0.0 0.0 0.00 0.00 0.00 94 1014.2
20260905062621 25 127 0.0 0.0 0.00 0.00 0.00 94 1014.3
20260905062118 25 127 0.0 0.0 0.00 0.00 0.00 94 1014.2
20260905061605 25 127 0.0 0.0 0.00 0.00 0.00 94 1014.2
20260905061055 25 127 0.0 0.0 0.00 0.00 0.00 94 1014.1
20260905060553 25 127 0.0 0.0 0.00 0.00 0.00 94 1014.2
20260905060058 25 127 0.0 0.0 0.00 0.00 0.00 94 1014.2
20260905055539 25 127 0.0 0.0 0.00 0.00 0.00 94 1014.2
20260905055025 25 127 0.0 0.0 0.00 0.00 0.00 93 1014.2
20260905054531 25 127 0.0 0.0 0.00 0.00 0.00 93 1014.2
20260905054014 25 127 0.0 0.0 0.00 0.00 0.00 93 1014.3
20260905053504 25 127 0.0 0.0 0.00 0.00 0.00 93 1014.3
20260905053009 25 127 0.0 0.0 0.00 0.00 0.00 93 1014.3
20260905052501 25 127 0.0 0.0 0.00 0.00 0.00 93 1014.3
20260905051947 25 127 0.0 0.0 0.00 0.00 0.00 93 1014.4
20260905051448 25 127 0.0 0.0 0.00 0.00 0.00 93 1014.4
20260905050949 25 127 0.0 0.0 0.00 0.00 0.00 93 1014.3
20260905050436 25 127 0.0 0.0 0.00 0.00 0.00 93 1014.4
20260905045930 25 127 0.0 0.0 0.00 0.00 0.00 93 1014.6
20260905045426 25 127 0.0 0.0 0.00 0.00 0.00 93 1014.6
20260905044925 25 127 0.0 0.0 0.00 0.00 0.00 93 1014.6
20260905044421 26 127 0.0 0.0 0.00 0.00 0.00 92 1014.6
20260905043919 26 127 0.0 0.0 0.00 0.00 0.00 93 1014.6
20260905043404 26 127 0.0 0.0 0.00 0.00 0.00 92 1014.5
20260905042848 26 127 0.0 0.0 0.00 0.00 0.00 92 1014.5
20260905042332 26 127 0.0 0.0 0.00 0.00 0.00 92 1014.5
20260905041836 26 127 0.0 0.0 0.00 0.00 0.00 92 1014.5
20260905041340 26 127 0.0 0.0 0.00 0.00 0.00 92 1014.6
20260905040829 26 127 0.0 0.0 0.00 0.00 0.00 92 1014.6
20260905040311 26 127 0.0 0.0 0.00 0.00 0.00 91 1014.7
20260905035806 26 127 0.0 0.0 0.00 0.00 0.00 91 1014.9
20260905035256 26 127 0.0 0.0 0.00 0.00 0.00 91 1014.9
20260905034753 26 127 0.0 0.0 0.00 0.00 0.00 91 1014.8
20260905034300 26 127 0.0 0.0 0.00 0.00 0.00 91 1014.9
20260905033740 26 127 0.0 0.0 0.00 0.00 0.00 90 1014.9
20260905033240 26 127 0.0 0.0 0.00 0.00 0.00 90 1014.9
20260905032739 26 127 0.0 0.0 0.00 0.00 0.00 90 1014.9
20260905032230 26 127 0.0 0.0 0.00 0.00 0.00 90 1014.9
20260905031730 26 127 0.0 0.0 0.00 0.00 0.00 90 1014.9
20260905031225 26 71 0.0 0.0 0.00 0.00 0.00 90 1014.8
20260905030714 26 71 0.0 0.0 0.00 0.00 0.00 89 1014.8
20260905030208 26 71 0.0 0.0 0.00 0.00 0.00 89 1014.8
20260905025656 26 71 0.0 0.0 0.00 0.00 0.00 88 1014.8
20260905025200 26 71 0.0 0.0 0.00 0.00 0.00 88 1014.8
20260905024706 26 71 0.0 0.0 0.00 0.00 0.00 88 1014.7
20260905024211 26 72 0.0 0.0 0.00 0.00 0.00 88 1014.6
20260905023704 26 71 0.0 0.0 0.00 0.00 0.00 88 1014.6
20260905023144 27 71 0.0 0.0 0.00 0.00 0.00 87 1014.6